COSMOS 2499 DEB, 55732

Orbit data source: Space-Track

COSMOS 2499 DEB, 55732 is space debris in LEO originally from a launch on Fri, 23 May 2014 UTC launched from the Plesetsk Missile And Space Complex (PKMTR). Debris objects in space refer to the collection of defunct objects orbiting the Earth. Examples of debris include non-operational satellites, rocket bodies, and fragments generated from explosions, collisions, or faulty payload assembly.

Loading next visibility...
Identifier
55732, 2014-028AU
Orbit
LEO
Country
Flag of CISCIS
Related business
Manufacturer
TsNIIKhM
Mission
Spacecraft
Bus & Motor
Unknown
Mass
Unknown
Launch date (UTC)
2014-05-23 (12 years ago)
Launch vehicle
Unknown
Launch site
Plesetsk Missile And Space Complex (PKMTR)
Object type
Payload
Rocket body
Debris
Shape & HBR
Unknown shape, 0.1 m
Radar Cross Section
Small (<0.1 m²)

Expand to show TLE details & history
Last TLE update: 3 weeks ago

TLE from 3 weeks ago
0 COSMOS 2499 DEB
1 55732U 14028AU  25331.84435209  .00003471  00000-0  12113-1 0  9990
2 55732  82.3089  20.2911 0233123 131.5582 230.5773 12.87837475 70194
Epoch: 2025-11-27T20:15Z
TLE epoch observation values (Epoch: 2025-11-27T20:15:52.020Z)
Latitude
-0.00003°
Longitude
9.32891°
Altitude
1,429.16 km
Speed
7.092 km/s
True Right ascension
01h 21m 09s
True Declination
0° 00' 00"
Sunlit
Object was in full shadow at epoch
Visualization orbit readout
Latitude
Unknown
Longitude
Unknown
Altitude
Unknown
Speed
Unknown
Apparent Right ascension
Unknown
Apparent Declination
Unknown
Sunlit
N/A
Visualization observer readout
Local Sidereal Time
12:45:37
Azimuth
Unknown
Elevation
Unknown
Doppler factor
Unknown
Orbital elements
Apogee altitude
1,486.579 km
Perigee altitude
1,128.244 km
Semi-major axis
7,685.548 km
Eccentricity
0.02331
Inclination
82.3089°
RAAN
20.2911°
Arg. of periapsis
131.5582°
True anomaly
228.55164°
Mean anomaly
230.5773°
Eccentric anomaly
229.56071°
Mean motion
3.2213 °/min
Orbital period
111.76 mins
BSTAR
0.012113
Loading maneuver chart data...
Computing Atmospheric mass density...
Loading historical data...
Loading historical data...
Loading historical data...
Loading historical data...
Loading historical data...
Loading historical data...
Loading historical data...

Documentation

Showing up to 5 results
|